Regional Weather Roundup
Issued by NWS

Home | Current Version | Previous Version | Graphics & Text | Print | Product List | Glossary On
Versions: 1 2 3 4 5 6 7 8 9 10 11 12 13 14 15 16 17 18 19 20 21 22 23 24 25 26 27 28 29 30 31 32 33 34 35 36 37 38 39 40 41 42 43 44 45 46 47 48 49 50
000
ASUS43 KDMX 241308
RWRIA

WEATHER ROUNDUP FOR IOWA
NATIONAL WEATHER SERVICE DES MOINES IA
800 AM CDT SUN JUL 24 2016

NOTE: "FAIR" INDICATES FEW OR NO CLOUDS BELOW 12,000 FEET WITH NO
SIGNIFICANT WEATHER AND/OR OBSTRUCTIONS TO VISIBILITY.

* - THESE STATIONS ARE NOT NWS STATIONS...THUS NOT UNDER NWS
QUALITY CONTROL.  THEY ALSO DO NOT REPORT WEATHER SUCH
AS PRECIPITATION OR FOG.

IAZ001>003-012>014-020>022-031>034-043>046-241400-
   NORTHWEST IOWA

CITY           SKY/WX    TMP DP  RH WIND       PRES   REMARKS
CARROLL *      SUNNY     77  73  88 N9G16     29.91R
CHEROKEE *     SUNNY     74  66  77 N8        29.92R
LE MARS *      SUNNY     73  68  83 N12       29.93R
SHELDON *      SUNNY     72  68  88 N5        29.92F
SIOUX CITY     SUNNY     78  65  63 N8        29.91R HX  80
SPENCER        SUNNY     72  65  78 NW9       29.93R
STORM LAKE *   SUNNY     73  64  73 N7G14     29.93R
$$

IAZ055>058-069>071-079>083-090>094-241400-
   SOUTHWEST IOWA

CITY           SKY/WX    TMP DP  RH WIND       PRES   REMARKS
ATLANTIC *     MOSUNNY   79  77  94 N7        29.90R HX  83
CLARINDA *       N/A     79  75  89 MISG      29.91R HX  82
COUNCIL BLFS * MOSUNNY   77  73  88 N10       29.91S
CRESTON *      MOSUNNY   79  73  83 SW6       29.91R HX  82
HARLAN  *      MOSUNNY   77  73  88 N10       29.94R
LAMONI         MOSUNNY   79  74  84 S10       29.90R HX  82
RED OAK *      PTSUNNY   79  77  94 N10       29.90R HX  83
SHENANDOAH *   MOSUNNY   79  77  94 CALM      29.90R HX  83
$$

IAZ047>049-059>061-072>074-084-241400-
   CENTRAL IOWA

CITY           SKY/WX    TMP DP  RH WIND       PRES   REMARKS
AMES           CLOUDY    79  77  94 W6        29.86R HX  83
ANKENY *         N/A    N/A N/A N/A MISG        N/A
BOONE *        CLOUDY    79  75  89 NW9       29.87R HX  82
CHARITON *       N/A    N/A N/A N/A MISG        N/A
DES MOINES     MOSUNNY   81  75  82 SW8       29.86R HX  87
GRINNELL*      SUNNY     80  74  81 SW8       29.86S HX  84
KNOXVILLE *    CLOUDY    81  73  78 SW9       29.85R HX  85
MARSHALLTOWN   SUNNY     80  77  90 SW8       29.84R HX  87
NEWTON *       MOSUNNY   81  77  89 SW10      29.86R HX  88
PELLA *        SUNNY     82  73  74 SW6       29.87R HX  88
PERRY *        PTSUNNY   78  77  95 NW6       29.88R HX  82
$$

IAZ004>006-015-016-023>025-035-036-241400-
   NORTH CENTRAL IOWA

CITY           SKY/WX    TMP DP  RH WIND       PRES   REMARKS
ALGONA *       SUNNY     75  70  83 N9G15     29.91R
ESTHERVILLE    SUNNY     72  68  87 NW10      29.92R
FORT DODGE *   SUNNY     75  72  88 N6        29.91R
MASON CITY     PTSUNNY   75  72  90 NW16G26   29.88R
FOREST CITY *    N/A     73  72  94 NW13      29.88R
IOWA FALLS *   CLOUDY    79  74  86 W7        29.87R HX  82
$$

IAZ007>011-017>019-026>030-037>042-050>054-066-241400-
   NORTHEAST IOWA

CITY           SKY/WX    TMP DP  RH WIND       PRES   REMARKS
CEDAR RAPIDS   SUNNY     81  79  94 SW8       29.84R HX  90
CHARLES CITY * CLOUDY    77  77 100 W6G12     29.84R
CLINTON *      MOSUNNY   81  78  91 S12       29.86S HX  89
DECORAH *      SUNNY     79  77  94 W7        29.82R HX  83
DUBUQUE        SUNNY     79  77  94 S9        29.85R HX  83
MONTICELLO *   SUNNY     81  79  94 SW9       29.84R HX  89
OELWEIN *      SUNNY     79  77  94 SW9       29.84R HX  83
WATERLOO       SUNNY     80  75  84 SW9       29.81S HX  85
$$

IAZ064-065-067-068-078-241400-
   EAST CENTRAL IOWA

CITY           SKY/WX    TMP DP  RH WIND       PRES   REMARKS
DAVENPORT      SUNNY     82  76  81 S13       29.86S HX  89
IOWA CITY      SUNNY     82  77  84 SW8       29.85S HX  90
MT. PLEASANT * SUNNY     83  81  92 S8        29.87S HX  97
MUSCATINE *    SUNNY     82  77  83 S7        29.86R HX  91
QUAD CITIES    SUNNY     83  76  79 S7        29.85S HX  91
$$

IAZ062-063-075>077-085>089-095>099-241400-
   SOUTHEAST IOWA

CITY           SKY/WX    TMP DP  RH WIND       PRES   REMARKS
BURLINGTON     SUNNY     80  78  94 S10       29.88S HX  88
FAIRFIELD *    MOSUNNY   82  77  83 S10       29.86S HX  91
KEOKUK *       SUNNY     82  77  83 SW9       29.88S HAZE    HX  91
CENTERVILLE *    N/A     81  73  78 SW9       29.90R HX  85
OTTUMWA        MOSUNNY   80  74  81 SW7       29.87R HX  85
WASHINGTON *   SUNNY     81  79  94 SW13      29.87R HX  89
$$

ABBREVIATIONS USED IN REMARKS
   TC - TEMPERATURES IN CELSIUS
  WCI - WIND CHILL INDEX
   HX - HEAT INDEX
  VSB - VISIBILITY
$$





USA.gov is the U.S. government's official web portal to all federal, state and local government web resources and services.